User: anonymous   Login
Location: Earls Croome
(52.0667°N, 2.2000°W)
Time: 15:33:27
(UTC+00:00)
Language:

ALOS - Orbit

View from above orbital plane
View from above orbital plane
View from above satellite
View from above satellite

Ground track
Ground track

The orbit data is extracted from the following two-line orbital elements,

1 28931U 06002A   20017.96035960  .00000065  00000-0  21412-4 0  9994
2 28931  97.8327  11.2307 0000806 103.3475 256.7826 14.62674469745553
Epoch (UTC): 17 January 2020 23:02:55
Eccentricity: 0.0000806
inclination: 97.8327°
perigee height: 684 km
apogee height: 685 km
right ascension of ascending node: 11.2307°
argument of perigee: 103.3475°
revolutions per day: 14.62674469
mean anomaly at epoch: 256.7826°
orbit number at epoch: 74555

The dashed part of the orbit path shows where the satellite is in the earth's shadow,  

DLR